TimeEST,TemperatureF,Dew PointF,Humidity,Sea Level PressureIn,VisibilityMPH,Wind Direction,Wind SpeedMPH,Gust SpeedMPH,PrecipitationIn,Events,Conditions,WindDirDegrees,DateUTC
12:15 AM,30.7,29.1,94,30.20,10.0,NNW,3.5,-,N/A,,Clear,330,2012-11-23 05:15:00
12:35 AM,30.9,29.3,94,30.19,10.0,Calm,Calm,-,N/A,,Clear,0,2012-11-23 05:35:00
12:55 AM,31.1,29.7,94,30.19,10.0,Calm,Calm,-,N/A,,Clear,0,2012-11-23 05:55:00
1:15 AM,28.6,27.1,94,30.19,10.0,Calm,Calm,-,N/A,,Clear,0,2012-11-23 06:15:00
1:35 AM,29.7,28.2,94,30.18,10.0,Calm,Calm,-,N/A,,Clear,0,2012-11-23 06:35:00
1:55 AM,29.1,27.9,95,30.18,10.0,Calm,Calm,-,N/A,,Clear,0,2012-11-23 06:55:00
2:15 AM,28.9,28.2,97,30.17,10.0,Calm,Calm,-,N/A,,Clear,0,2012-11-23 07:15:00
2:35 AM,28.0,27.5,98,30.17,10.0,Calm,Calm,-,N/A,,Clear,0,2012-11-23 07:35:00
2:55 AM,28.4,27.0,94,30.15,10.0,Calm,Calm,-,N/A,,Clear,0,2012-11-23 07:55:00
3:15 AM,27.3,27.0,99,30.15,10.0,Calm,Calm,-,N/A,,Clear,0,2012-11-23 08:15:00
3:35 AM,27.5,25.7,93,30.15,10.0,Calm,Calm,-,N/A,,Clear,0,2012-11-23 08:35:00
3:55 AM,29.1,27.5,94,30.14,10.0,Calm,Calm,-,N/A,,Clear,0,2012-11-23 08:55:00
4:15 AM,28.4,26.1,91,30.14,10.0,Calm,Calm,-,N/A,,Clear,0,2012-11-23 09:15:00
4:35 AM,28.4,27.5,96,30.13,10.0,Calm,Calm,-,N/A,,Clear,0,2012-11-23 09:35:00
4:55 AM,26.6,25.5,96,30.13,10.0,Calm,Calm,-,N/A,,Clear,0,2012-11-23 09:55:00
5:15 AM,28.0,27.3,97,30.13,10.0,Calm,Calm,-,N/A,,Clear,0,2012-11-23 10:15:00
5:35 AM,28.0,27.1,96,30.13,10.0,Calm,Calm,-,N/A,,Clear,0,2012-11-23 10:35:00
5:55 AM,27.0,25.7,95,30.12,10.0,Calm,Calm,-,N/A,,Clear,0,2012-11-23 10:55:00
6:15 AM,28.4,26.2,92,30.10,10.0,Calm,Calm,-,N/A,,Clear,0,2012-11-23 11:15:00
6:35 AM,26.1,25.5,98,30.10,10.0,Calm,Calm,-,N/A,,Clear,0,2012-11-23 11:35:00
7:15 AM,28.0,26.2,93,30.10,10.0,Calm,Calm,-,N/A,,Clear,0,2012-11-23 12:15:00
7:35 AM,28.0,27.1,96,30.10,10.0,Calm,Calm,-,N/A,,Clear,0,2012-11-23 12:35:00
7:55 AM,28.8,28.0,97,30.10,10.0,Calm,Calm,-,N/A,,Clear,0,2012-11-23 12:55:00
8:15 AM,31.1,30.0,96,30.09,10.0,Calm,Calm,-,N/A,,Clear,0,2012-11-23 13:15:00
8:35 AM,34.5,32.0,90,30.08,10.0,Calm,Calm,-,N/A,,Clear,0,2012-11-23 13:35:00
8:55 AM,38.8,33.3,80,30.07,10.0,ESE,3.5,-,N/A,,Clear,120,2012-11-23 13:55:00
9:15 AM,42.1,32.7,69,30.05,10.0,SE,5.8,-,N/A,,Clear,140,2012-11-23 14:15:00
9:35 AM,44.4,32.0,62,30.05,10.0,Calm,Calm,-,N/A,,Clear,0,2012-11-23 14:35:00
9:55 AM,48.4,32.2,54,30.04,10.0,South,4.6,-,N/A,,Clear,170,2012-11-23 14:55:00
10:15 AM,50.9,31.5,47,30.03,10.0,SSW,4.6,-,N/A,,Clear,200,2012-11-23 15:15:00
10:35 AM,52.7,31.3,44,30.02,10.0,SSE,3.5,-,N/A,,Clear,150,2012-11-23 15:35:00
10:55 AM,55.2,31.3,40,30.01,10.0,South,4.6,-,N/A,,Clear,190,2012-11-23 15:55:00
11:15 AM,57.4,31.8,38,30.00,10.0,SSW,6.9,-,N/A,,Clear,200,2012-11-23 16:15:00
11:35 AM,58.3,32.0,37,29.97,10.0,SSW,4.6,-,N/A,,Clear,200,2012-11-23 16:35:00
11:55 AM,59.7,32.2,35,29.96,10.0,SSW,5.8,-,N/A,,Clear,200,2012-11-23 16:55:00
12:15 PM,61.2,33.1,35,29.95,10.0,SSE,4.6,-,N/A,,Clear,160,2012-11-23 17:15:00
12:35 PM,61.5,33.4,35,29.93,10.0,SSE,6.9,-,N/A,,Clear,160,2012-11-23 17:35:00
1:15 PM,63.1,34.0,34,29.90,10.0,SSW,5.8,-,N/A,,Clear,200,2012-11-23 18:15:00
1:35 PM,64.6,34.5,33,29.89,10.0,South,6.9,-,N/A,,Clear,170,2012-11-23 18:35:00
1:55 PM,66.4,35.4,32,29.87,10.0,South,6.9,-,N/A,,Clear,180,2012-11-23 18:55:00
2:15 PM,66.4,35.6,32,29.85,10.0,South,8.1,-,N/A,,Clear,190,2012-11-23 19:15:00
2:35 PM,64.9,35.8,34,29.85,10.0,SSW,6.9,-,N/A,,Clear,210,2012-11-23 19:35:00
2:55 PM,66.4,36.3,33,29.84,10.0,SW,6.9,-,N/A,,Clear,230,2012-11-23 19:55:00
3:15 PM,65.3,35.8,34,29.84,10.0,SSW,10.4,-,N/A,,Clear,210,2012-11-23 20:15:00
3:35 PM,64.6,35.8,34,29.83,10.0,South,4.6,-,N/A,,Clear,190,2012-11-23 20:35:00
3:55 PM,64.0,36.3,36,29.83,10.0,SSW,4.6,-,N/A,,Clear,200,2012-11-23 20:55:00
4:15 PM,63.7,36.3,36,29.82,10.0,South,4.6,-,N/A,,Clear,190,2012-11-23 21:15:00
4:35 PM,63.5,36.3,36,29.82,10.0,South,3.5,-,N/A,,Clear,180,2012-11-23 21:35:00
4:55 PM,63.1,36.3,37,29.82,10.0,South,3.5,-,N/A,,Scattered Clouds,190,2012-11-23 21:55:00
5:15 PM,63.0,37.2,38,29.81,10.0,SSW,6.9,-,N/A,,Scattered Clouds,200,2012-11-23 22:15:00
5:35 PM,62.8,38.1,40,29.82,10.0,SSW,3.5,-,N/A,,Scattered Clouds,200,2012-11-23 22:35:00
5:55 PM,62.6,38.1,40,29.81,10.0,SSW,4.6,-,N/A,,Overcast,200,2012-11-23 22:55:00
6:15 PM,61.7,38.3,42,29.82,10.0,SW,5.8,-,N/A,,Mostly Cloudy,220,2012-11-23 23:15:00
6:35 PM,61.7,38.5,42,29.82,10.0,SW,4.6,-,N/A,,Mostly Cloudy,220,2012-11-23 23:35:00
6:55 PM,61.2,38.7,43,29.81,10.0,SSW,6.9,-,N/A,,Mostly Cloudy,210,2012-11-23 23:55:00
7:15 PM,60.4,38.8,45,29.81,10.0,WSW,6.9,-,N/A,,Clear,240,2012-11-24 00:15:00
7:35 PM,59.9,39.4,47,29.82,10.0,NW,11.5,-,N/A,,Scattered Clouds,320,2012-11-24 00:35:00
7:55 PM,57.6,40.1,52,29.82,10.0,WNW,6.9,-,N/A,,Mostly Cloudy,300,2012-11-24 00:55:00
8:15 PM,55.8,40.3,56,29.83,10.0,NW,8.1,-,N/A,,Mostly Cloudy,310,2012-11-24 01:15:00
8:35 PM,55.6,40.3,56,29.83,10.0,WNW,3.5,-,N/A,,Mostly Cloudy,290,2012-11-24 01:35:00
8:55 PM,54.3,40.5,59,29.84,10.0,NNW,8.1,-,N/A,,Mostly Cloudy,330,2012-11-24 01:55:00
9:15 PM,55.4,41.9,60,29.85,10.0,WNW,9.2,-,N/A,,Overcast,300,2012-11-24 02:15:00
9:35 PM,56.5,38.3,51,29.85,10.0,WNW,12.7,17.3,N/A,,Scattered Clouds,290,2012-11-24 02:35:00
9:55 PM,55.8,33.4,43,29.86,10.0,West,9.2,21.9,N/A,,Clear,280,2012-11-24 02:55:00
10:15 PM,54.7,31.3,41,29.86,10.0,WNW,13.8,-,N/A,,Clear,300,2012-11-24 03:15:00
10:35 PM,53.8,30.7,41,29.86,10.0,WNW,12.7,18.4,N/A,,Clear,300,2012-11-24 03:35:00
10:55 PM,53.2,29.5,40,29.85,10.0,WNW,11.5,23.0,N/A,,Clear,300,2012-11-24 03:55:00
11:15 PM,52.7,29.3,41,29.87,10.0,NW,13.8,19.6,N/A,,Clear,310,2012-11-24 04:15:00
11:35 PM,52.3,30.0,42,29.86,10.0,NW,13.8,-,N/A,,Clear,320,2012-11-24 04:35:00
11:55 PM,52.2,29.3,41,29.87,10.0,WNW,5.8,-,N/A,,Clear,300,2012-11-24 04:55:00